This demonstration page uses our WeatherBlox Daily Observations layout. Learn more.

38.89511, -77.03637

Hourly Observations for February 26, 2015

Temp ( °F °C ) Dew Point ( °F °C ) Humidity (%) Winds ( mph kmh ) Pressure ( in mb ) Visibility ( mi km ) Precip ( " mm )
12:52 am 00:52 Cloudy 36 2.2 18 -7.8 48 48 Calm 29.94 1014 10 16.0934 0 0
1:52 am 01:52 Cloudy 36 2.2 19 -7.2 50 50 S 7 11 29.94 1014 10 16.0934 0 0
2:52 am 02:52 Cloudy 36 2.2 19 -7.2 50 50 N 3 6 29.91 1013 10 16.0934 0 0
3:52 am 03:52 Cloudy with Light Snow 36 2.2 20 -6.7 52 52 E 7 11 29.89 1012 10 16.0934 0 0.0254
4:52 am 04:52 Cloudy with Light Snow 34 1.1 22 -5.6 61 61 NNE 8 13 29.9 1012 7 11.26538 0 0.0254
4:55 am 04:55 Cloudy with Light Snow 34 1 21 -6 60 60 NNE 8 13 29.91 1013 5 8.0467 0 0.0254
5:01 am 05:01 Cloudy with Light Snow 34 1 23 -5 65 65 NNE 8 13 29.91 1013 1.75 2.816345 0 0.0254
5:21 am 05:21 Cloudy with Light Snow 32 0 25 -4 75 75 NE 8 13 29.91 1013 1.25 2.011675 0.01 0.254
5:52 am 05:52 Mostly Cloudy with Scattered Snow Showers 31 -0.6 26 -3.3 82 82 NNE 7 11 29.91 1013 1 1.60934 0.02 0.508
6:04 am 06:04 Cloudy with Light Snow 30 -1 27 -3 86 86 NNE 9 15 29.91 1013 1.25 2.011675 0 0
6:16 am 06:16 Cloudy with Light Snow 30 -1 27 -3 86 86 NNE 6 9 29.91 1013 1 1.60934 0 0
6:50 am 06:50 Cloudy with Snow 30 -1 27 -3 86 86 NNE 7 11 29.91 1013 0.5 0.80467 0 0
6:52 am 06:52 Cloudy with Snow 31 -0.6 27 -2.8 85 85 NNE 8 13 29.9 1013 0.5 0.80467 0.04 1.016
7:43 am 07:43 Cloudy with Light Snow 32 0 27 -3 80 80 NNE 9 15 29.94 1014 0.75 1.207005 0.03 0.762
7:48 am 07:48 Cloudy with Snow 32 0 27 -3 80 80 NNE 9 15 29.91 1013 0.5 0.80467 0 0
7:52 am 07:52 Cloudy with Snow 32 0 27 -2.8 82 82 NNE 9 15 29.92 1013 0.5 0.80467 0.04 1.016
7:57 am 07:57 Cloudy with Light Snow 32 0 27 -3 80 80 NNE 9 15 29.94 1014 0.75 1.207005 0 0.0254
8:52 am 08:52 Cloudy with Light Snow 32 0 27 -2.8 82 82 NNE 9 15 29.93 1014 0.75 1.207005 0.03 0.762
9:23 am 09:23 Cloudy with Light Snow 32 0 27 -3 80 80 NE 14 22 29.94 1014 1 1.60934 0.01 0.254
9:38 am 09:38 Cloudy with Light Snow 32 0 27 -3 80 80 NNE 14 22 29.94 1014 1 1.60934 0 0
9:52 am 09:52 Cloudy with Light Snow 32 0 25 -3.9 75 75 NNE 16 26 29.93 1013 1.5 2.41401 0.01 0.254
9:56 am 09:56 Cloudy with Light Snow 32 0 25 -4 75 75 NNE 15 24 29.94 1014 2 3.21868 0 0.0254
10:10 am 10:10 Cloudy with Haze 32 0 25 -4 75 75 NE 14 22 29.94 1014 4 6.43736 0 0
10:24 am 10:24 Cloudy with Light Snow 32 0 25 -4 75 75 NE 14 22 29.91 1013 4 6.43736 0 0
10:52 am 10:52 Cloudy 33 0.6 25 -3.9 72 72 N 13 20 29.91 1013 7 11.26538 0 0.0254
11:52 am 11:52 Cloudy 34 1.1 24 -4.4 67 67 NNE 12 19 29.91 1013 10 16.0934 0 0
12:46 pm 12:46 Cloudy 36 2 25 -4 65 65 NE 10 17 29.91 1013 10 16.0934 0 0
12:52 pm 12:52 Cloudy 35 1.7 24 -4.4 64 64 NE 8 13 29.9 1012 10 16.0934 0 0
1:52 pm 13:52 Cloudy 37 2.8 25 -3.9 62 62 N 13 20 29.93 1013 10 16.0934 0 0
2:52 pm 14:52 Mostly Cloudy 38 3.3 23 -5 55 55 N 8 13 29.95 1014 10 16.0934 0 0
3:52 pm 15:52 Mostly Cloudy 39 3.9 23 -5 53 53 N 7 11 29.97 1015 10 16.0934 0 0
4:52 pm 16:52 Cloudy 38 3.3 23 -5 55 55 N 6 9 30 1016 10 16.0934 0 0
5:52 pm 17:52 Cloudy 37 2.8 22 -5.6 54 54 N 6 9 30.02 1017 10 16.0934 0 0
6:52 pm 18:52 Mostly Cloudy 36 2.2 22 -5.6 57 57 NE 3 6 30.06 1018 10 16.0934 0 0
7:52 pm 19:52 Cloudy 35 1.7 21 -6.1 57 57 Calm 30.1 1019 10 16.0934 0 0
8:52 pm 20:52 Cloudy 34 1.1 24 -4.4 67 67 SE 7 11 30.11 1020 10 16.0934 0 0
9:52 pm 21:52 Cloudy 33 0.6 22 -5.6 64 64 Calm 30.13 1020 10 16.0934 0 0
10:52 pm 22:52 Cloudy 33 0.6 22 -5.6 64 64 SSE 5 7 30.14 1021 10 16.0934 0 0
11:52 pm 23:52 Cloudy 33 0.6 23 -5 66 66 S 3 6 30.16 1021 10 16.0934 0 0

Powered by AerisWeather